IRIDIUM 33 DEB, 39777

Orbit data source: Space-Track

IRIDIUM 33 DEB, 39777 is space debris in LEO originally from a launch on Sun, 14 Sep 1997 UTC launched from the Tyuratam Missile And Space Complex (TTMTR). The debris from Iridium 33, an American commercial communications satellite, has been tracked extensively since its accidental collision with the defunct Russian satellite Cosmos 2251 in 2009. This event, occurring at high speed in low Earth orbit (LEO), generated thousands of pieces of space debris, significantly increasing the risk of further collisions. The Iridium 33 debris cloud has impacted space traffic management and orbital debris mitigation strategies, making it a subject of ongoing study in space situational awareness.

Loading next visibility...
Identifier
39777, 1997-051AAJ
Orbit
LEO
Country
Flag of USUS
Related business
Manufacturer
Unknown
Mission
Spacecraft
Bus & Motor
Unknown
Mass
Unknown
Launch date (UTC)
1997-09-14 (28 years ago)
Launch vehicle
Unknown
Launch site
Tyuratam Missile And Space Complex (TTMTR)
Object type
Payload
Rocket body
Debris
Shape & HBR
Unknown shape, 0.1 m
Radar Cross Section
Small (<0.1 m²)

Expand to show TLE details & history
Last TLE update: 6 days ago

TLE from 6 days ago
0 IRIDIUM 33 DEB
1 39777U 97051AAJ 25302.68415606  .00010605  00000-0  23842-2 0  9996
2 39777  85.9638 196.3919 0061891 338.8117  21.0526 14.55201885595440
Epoch: 2025-10-29T16:25Z
TLE epoch observation values (Epoch: 2025-10-29T16:25:11.083Z)
Latitude
-0.00012°
Longitude
-88.15805°
Altitude
670.877 km
Speed
7.543 km/s
True Right ascension
13h 05m 34s
True Declination
0° 00' 00"
Sunlit
Object was in daylight at epoch
Visualization orbit readout
Latitude
Unknown
Longitude
Unknown
Altitude
Unknown
Speed
Unknown
Apparent Right ascension
Unknown
Apparent Declination
Unknown
Sunlit
N/A
Visualization observer readout
Local Sidereal Time
10:48:28
Azimuth
Unknown
Elevation
Unknown
Doppler factor
Unknown
Orbital elements
Apogee altitude
749.496 km
Perigee altitude
661.811 km
Semi-major axis
7,083.79 km
Eccentricity
0.00619
Inclination
85.9638°
RAAN
196.3919°
Arg. of periapsis
338.8117°
True anomaly
21.30922°
Mean anomaly
21.0526°
Eccentric anomaly
21.18072°
Mean motion
3.64036 °/min
Orbital period
98.89 mins
BSTAR
0.0023842

Documentation

Showing up to 5 results
|